Aduy, Russia

5:47 PM +05 on January 19, 2018 (GMT +0500)
Aduy

Weather History for 28440 - September, 2013

Change the Weather History Date:

Saturday, September 7, 2013

  Actual Average Record
Temperature  
Mean Temperature 58 °F -  
Max Temperature 64 °F - - ()
Min Temperature 53 °F - - ()
Degree Days  
Heating Degree Days 6    
Growing Degree Days 8 (Base 50)    
Moisture  
Dew Point 54 °F    
Average Humidity 88    
Maximum Humidity 100    
Minimum Humidity 63    
Precipitation  
Precipitation 0.00 in 0.07 in - ()
Sea Level Pressure  
Sea Level Pressure 30.17 in    
Wind  
Wind Speed 6 mph ()    
Max Wind Speed 9 mph    
Max Gust Speed -    
Visibility 6.0 miles    
Events Rain    
T = Trace of Precipitation, MM = Missing Value Source: Averaged Metar Reports

Daily Weather History Graph

Daily Weather History Graph

Search for Another Location

Airport or City:

Trip Planner

Search our weather history database for the weather conditions in past years. The results will help you decide how hot, cold, wet, or windy it might be!

Date:

Astronomy

Sep. 07, 2013 Rise Set
Actual Time 7:11 AM +06 8:37 PM +06
Civil Twilight 6:32 AM +06 9:17 PM +06
Nautical Twilight 5:43 AM +06 10:05 PM +06
Astronomical Twilight 4:47 AM +06 11:00 PM +06
Moon 9:32 AM +06 (9/7) 8:44 PM +06 (9/7)
Length of Visible Light 14h 44m
Length of Day
13h 25m
Waxing Crescent, 3% of the Moon is Illuminated
Sep 7
Waxing Crescent
Sep 12
First Quarter
Sep 19
Full
Sep 27
Last Quarter
Oct 5
New

Hourly Weather History & Observations

Time (+06) Temp. Dew Point Humidity Pressure Visibility Wind Dir Wind Speed Gust Speed Precip Events Conditions
12:00 AM 57 °F 53 °F 83% 30.20 in 6 mi East 4.5 mph - -   Mostly Cloudy
12:00 AM 55.4 °F 53.6 °F 94% 30.18 in 6.2 mi East 8.9 mph - N/A   Overcast
12:30 AM 57.2 °F 53.6 °F 88% 30.18 in 6.2 mi East 6.7 mph - N/A   Overcast
1:00 AM 57.2 °F 53.6 °F 88% 30.18 in 6.2 mi East 6.7 mph - N/A   Overcast
1:30 AM 57.2 °F 53.6 °F 88% 30.18 in 6.2 mi East 4.5 mph - N/A   Overcast
2:00 AM 55.4 °F 53.6 °F 94% 30.18 in 6.2 mi East 6.7 mph - N/A   Overcast
2:30 AM 55.4 °F 53.6 °F 94% 30.18 in 6.2 mi East 6.7 mph - N/A   Overcast
3:00 AM 55 °F 52 °F 87% 30.19 in 6 mi East 2.2 mph - - Rain Light Rain Showers
3:00 AM 55.4 °F 51.8 °F 88% 30.18 in 6.2 mi East 6.7 mph - N/A   Overcast
3:30 AM 55.4 °F 51.8 °F 88% 30.18 in 6.2 mi ENE 4.5 mph - N/A   Overcast
4:00 AM 55.4 °F 53.6 °F 94% 30.18 in 6.2 mi ENE 6.7 mph - N/A   Overcast
4:30 AM 55.4 °F 53.6 °F 94% 30.18 in 6.2 mi ENE 6.7 mph - N/A   Overcast
5:00 AM 55.4 °F 53.6 °F 94% 30.18 in 6.2 mi ENE 4.5 mph - N/A   Overcast
5:30 AM 53.6 °F 53.6 °F 100% 30.18 in 6.2 mi ENE 4.5 mph - N/A   Overcast
6:00 AM 54 °F 52 °F 90% 30.19 in 6 mi East 6.7 mph - -   Partly Cloudy
6:00 AM 53.6 °F 53.6 °F 100% 30.18 in - ENE 6.7 mph - N/A   Clear
6:30 AM 53.6 °F 53.6 °F 100% 30.18 in - ENE 6.7 mph - N/A   Clear
7:00 AM 53.6 °F 53.6 °F 100% 30.18 in 6.2 mi ENE 4.5 mph - N/A   Overcast
7:30 AM 53.6 °F 53.6 °F 100% 30.18 in 6.2 mi ENE 4.5 mph - N/A Rain Light Rain Showers
8:00 AM 53.6 °F 53.6 °F 100% 30.18 in 6.2 mi East 4.5 mph - N/A Rain Light Rain Showers
8:30 AM 55.4 °F 55.4 °F 100% 30.18 in 4.3 mi East 4.5 mph - N/A Rain Light Rain Showers
9:00 AM 54 °F 53 °F 93% 30.20 in 2 mi East 4.5 mph - -   Overcast
9:00 AM 55.4 °F 55.4 °F 100% 30.18 in 4.3 mi East 4.5 mph - N/A Rain Light Rain Showers
9:30 AM 55.4 °F 55.4 °F 100% 30.18 in 6.2 mi SE 4.5 mph - N/A Rain Light Rain Showers
10:00 AM 55.4 °F 55.4 °F 100% 30.18 in 6.2 mi East 6.7 mph - N/A Rain Light Rain Showers
10:30 AM 55.4 °F 55.4 °F 100% 30.18 in 6.2 mi East 8.9 mph - N/A   Overcast
11:00 AM 57.2 °F 55.4 °F 94% 30.21 in 6.2 mi East 6.7 mph - N/A   Overcast
11:30 AM 57.2 °F 55.4 °F 94% 30.18 in 6.2 mi East 6.7 mph - N/A   Overcast
12:00 PM 56 °F 53 °F 88% 30.20 in 2 mi ESE 4.5 mph - - Rain Light Rain Showers
12:00 PM 57.2 °F 55.4 °F 94% 30.18 in 6.2 mi ESE 8.9 mph - N/A   Overcast
12:30 PM 57.2 °F 55.4 °F 94% 30.18 in 6.2 mi ESE 8.9 mph - N/A   Overcast
1:00 PM 57.2 °F 55.4 °F 94% 30.18 in 6.2 mi ESE 6.7 mph - N/A   Overcast
1:30 PM 57.2 °F 55.4 °F 94% 30.18 in 6.2 mi ESE 6.7 mph - N/A   Overcast
2:00 PM 59.0 °F 55.4 °F 88% 30.18 in 6.2 mi East 6.7 mph - N/A   Overcast
2:30 PM 59.0 °F 57.2 °F 94% 30.18 in 6.2 mi East 6.7 mph - N/A   Overcast
3:00 PM 58 °F 54 °F 83% 30.19 in 12 mi East 4.5 mph - - Rain Light Rain Showers
3:00 PM 59.0 °F 55.4 °F 88% 30.18 in 6.2 mi East 8.9 mph - N/A   Overcast
3:30 PM 59.0 °F 55.4 °F 88% 30.18 in 6.2 mi East 8.9 mph - N/A   Overcast
4:00 PM 62.6 °F 57.2 °F 82% 30.15 in - East 8.9 mph - N/A   Clear
4:30 PM 62.6 °F 55.4 °F 77% 30.15 in - East 8.9 mph - N/A   Clear
5:00 PM 64.4 °F 55.4 °F 73% 30.15 in - East 8.9 mph - N/A   Clear
5:30 PM 64.4 °F 55.4 °F 73% 30.15 in - East 8.9 mph - N/A   Clear
6:00 PM 62 °F 53 °F 63% 30.15 in 31 mi East 4.5 mph - -   Partly Cloudy
6:00 PM 62.6 °F 53.6 °F 72% 30.15 in - East 8.9 mph - N/A   Clear
6:30 PM 62.6 °F 53.6 °F 72% 30.15 in - East 8.9 mph - N/A   Clear
7:00 PM 60.8 °F 53.6 °F 77% 30.15 in 6.2 mi East 8.9 mph - N/A   Overcast
7:30 PM 60.8 °F 53.6 °F 77% 30.15 in 6.2 mi East 6.7 mph - N/A   Overcast
8:00 PM 60.8 °F 53.6 °F 77% 30.15 in 6.2 mi ENE 6.7 mph - N/A   Overcast
8:30 PM 59.0 °F 53.6 °F 82% 30.15 in 6.2 mi ENE 6.7 mph - N/A   Overcast
9:00 PM 58 °F 53 °F 78% 30.15 in 6 mi East 4.5 mph - -   Overcast
9:00 PM 57.2 °F 53.6 °F 88% 30.15 in 6.2 mi East 4.5 mph - N/A   Overcast
9:30 PM 57.2 °F 51.8 °F 82% 30.15 in 6.2 mi East 4.5 mph - N/A   Overcast
10:00 PM 57.2 °F 51.8 °F 82% 30.15 in 6.2 mi ENE 4.5 mph - N/A   Overcast
10:30 PM 57.2 °F 50.0 °F 77% 30.15 in 6.2 mi East 6.7 mph - N/A   Overcast
11:00 PM 57.2 °F 50.0 °F 77% 30.12 in 6.2 mi East 8.9 mph - N/A   Overcast
11:30 PM 55.4 °F 50.0 °F 82% 30.12 in 6.2 mi East 6.7 mph - N/A   Overcast